Preview of NWS' New Version of Forecast
This preview is not operational and should not be used for support decisions.
Latest weather observations around

Bowling Green, Bowling Green-Warren County Regional Airport (KBWG)

Using English Units (Switch to International System of Units)
Date/ Time (CDT) Wind (mph) Vis. (mi) Weather Sky Cond. Temp (°F) Rel. Humidity Wind Chill (°F) Heat Index (°F) Pressure Precip. (in)
Air Dwpt 6 hour Altimeter (inHg) Sea level (inHg) 1 hr 3 hr 6 hr
Max Min
Jun 24 14:53 WSW 15 10 Mostly Clear FEW025 FEW032 80 67     64%   82 29.82 29.8      
Jun 24 14:38 W 14 10 Partly Cloudy SCT026 SCT032 80 67     64%   82 29.82        
Jun 24 14:22 WSW 15 10 Mostly Cloudy BKN026 BKN035 BKN060 80 68     67%   83 29.83        
Jun 24 13:53 W 16 10 Mostly Cloudy FEW021 SCT050 BKN065 79 68     69%   80 29.82 29.8      
Jun 24 12:53 WSW 16 10 Mostly Cloudy SCT020 BKN049 BKN060 79 72     79%   82 29.78 29.76 0   0
Jun 24 12:45 WSW 17 10 Mostly Cloudy SCT020 SCT027 BKN036 78 72     82%   79 29.78   0    
Jun 24 11:53 SSE 14 10 Cloudy FEW012 BKN029 OVC036 78 72     82%   79 29.77 29.75      
Jun 24 11:51 SSE 13 10 Cloudy FEW012 BKN029 OVC036 77 72     83%   78 29.77        
Jun 24 11:10 SSE 10 10 Mostly Cloudy SCT008 BKN033 BKN042 74 70     87%   75 29.78        
Jun 24 10:53 SE 9 10 Cloudy BKN007 BKN031 OVC050 72 69     91%   73 29.79 29.77 0    
Jun 24 10:34 SSE 8 10 Light Rain FEW009 SCT037 OVC110 72 69     91%   73 29.8   0    
Jun 24 09:53 SE 5 4 Rain and Fog/Mist SCT041 BKN070 OVC110 72 69     91%   73 29.81 29.8 0 0  
Jun 24 09:50 SE 3 4 Rain and Fog/Mist SCT045 BKN090 OVC110 72 68     88%   73 29.82   0    
Jun 24 09:43 SE 7 4 Rain and Fog/Mist FEW044 BKN090 OVC110 72 69     91%   73 29.82   0    
Jun 24 09:36 SSE 5 2.5 Rain and Fog/Mist FEW046 BKN070 OVC110 72 69     91%   73 29.82   0    
Jun 24 09:26 S 5 1.75 Rain and Fog/Mist FEW009 BKN065 OVC080 72 69     91%   73 29.83   0    
Jun 24 09:20 S 7 2.5 Heavy Rain and Fog/Mist FEW040 BKN065 BKN080 72 69     91%   73 29.84   0    
Jun 24 08:53 S 5 10 Light Rain FEW060 BKN090 BKN110 73 69     87%   74 29.84 29.82 0    
Jun 24 08:25 S 8 7 Light Rain SCT008 BKN090 OVC110 72 70     93%   73 29.85   0    
Jun 24 07:53 SSW 5 4 Rain and Fog/Mist SCT011 BKN080 OVC110 73 69     87%   74 29.85 29.83 0    
Jun 24 07:40 SSW 8 8 Light Rain BKN011 BKN019 OVC085 73 69     87%   74 29.86   0    
Jun 24 07:19 S 7 7 Light Rain SCT018 BKN024 OVC070 73 70     90%   74 29.88   0    
Jun 24 06:53 SSW 3 6 Light Rain and Fog/Mist FEW033 FEW070 OVC100 72 69     91%   73 29.86 29.84 0   0
Jun 24 06:37 SW 5 3 Light Rain and Fog/Mist SCT017 BKN033 OVC090 72 69     91%   73 29.87   0    
Jun 24 06:35 SW 3 1.75 Light Rain and Fog/Mist SCT016 BKN035 OVC090 72 69     91%   73 29.87   0    
Jun 24 06:26 3 0.75 Heavy Rain and Fog/Mist FEW010 OVC018 73 69     87%   74 29.88   0    
Jun 24 06:24 WSW 7 1.5 Heavy Rain and Fog/Mist SCT014 OVC020 73 69     87%   74 29.88   0    
Jun 24 05:53 WSW 5 10 Mostly Cloudy FEW018 BKN023 BKN055 73 68     84%   74 29.86 29.84      
Jun 24 05:07 NW 3 10 Partly Cloudy SCT016 72 68     87%   73 29.83        
Jun 24 04:53 WSW 3 10 Mostly Cloudy BKN016 72 68     87%   73 29.83 29.81      
Jun 24 04:50 SW 3 10 Mostly Cloudy BKN018 72 68     88%   73 29.83        
Jun 24 03:53 Calm 10 Clear CLR 72 68     87%   73 29.8 29.78      
Jun 24 02:53 SSW 3 10 Clear CLR 73 67     81%   74 29.82 29.8      
Jun 24 01:53 SSW 6 10 Clear CLR 73 67     81%   74 29.84 29.82      
Jun 24 00:53 SSW 10 10 Mostly Clear FEW120 74 67     79%   75 29.85 29.83     0
Jun 23 23:53 S 11 10 Clear CLR 74 68     82%   75 29.86 29.84 0    
Jun 23 22:53 S 13 10 Light Rain FEW120 74 68     82%   75 29.87 29.85 0    
Jun 23 21:53 SSW 13 10 Light Rain CLR 72 68     87%   73 29.89 29.87 0 0  
Jun 23 21:02 SW 10 10 Light Rain FEW033 SCT080 SCT110 73 68     84%   74 29.89   0    
Jun 23 20:53 WSW 9 6 Rain SCT040 BKN070 BKN085 73 68     84%   74 29.9 29.88 0    
Jun 23 20:40 WSW 14 10 Thunderstorms and Rain SCT034 BKN050 OVC110 74 68     82%   75 29.91   0    
Jun 23 19:53 S 6 10 Mostly Clear FEW100 83 73     72%   89 29.89 29.87      
Jun 23 18:53 SSE 8 10 Mostly Clear FEW090 84 73     70%   90 29.88 29.86     0
Jun 23 17:53 SSE 10 10 Clear CLR 86 73     65%   93 29.87 29.85      
Jun 23 16:53 E 7 10 Clear CLR 82 72     72%   87 29.89 29.88      
Jun 23 15:53 5 10 Clear CLR 82 68     63%   85 29.93 29.91 0 0  
Jun 23 15:49 ESE 9 10 Clear CLR 81 70     70%   84 29.93   0    
Jun 23 15:15 SSW 13 10 Partly Cloudy FEW033 SCT050 SCT070 82 70     67%   86 29.9   0    
Jun 23 15:03 S 10 10 Thunderstorms FEW036 SCT055 BKN075 80 72     76%   84 29.9   0    
Jun 23 14:56 SSW 9 2 Thunderstorms and Rain SCT036 BKN055 BKN075 79 71     77%   82 29.92   0    
Jun 23 14:53 SSW 8 1 Thunderstorms and Rain FEW026 BKN055 OVC070 78 70     76%   79 29.93 29.91 0    
Jun 23 14:46   1.25 Thunderstorms and Heavy Rain FEW025 SCT037 BKN055 83 71     67%   88 29.95   0    
Jun 23 14:39 SSE 10 7 Thunderstorms FEW039 SCT050 BKN075 88 73     61%   96 29.91        
Jun 23 13:53 S 9 10 Mostly Clear FEW035 90 73     58%   98 29.94 29.92      
Jun 23 12:53 SSW 7 10 Mostly Clear FEW032 87 73     63%   95 29.98 29.96     0
Jun 23 11:53 SW 11 10 Clear CLR 86 72     63%   92 30 29.98      
Jun 23 10:53 SSW 14 10 Clear CLR 83 70     65%   87 30.01 29.99      
Jun 23 09:53 S 13 10 Clear CLR 81 68     65%   84 30.01 30   0  
Jun 23 08:53 SSW 11 10 Clear CLR 79 70     74%   82 30.02 30.01      
Jun 23 07:53 S 7 10 Mostly Cloudy BKN036 BKN047 73 69     87%   74 30.03 30.01 0    
Jun 23 07:32 S 9 10 Mostly Cloudy BKN036 72 69     91%   73 30.03   0    
Jun 23 07:12 S 6 10 Light Rain FEW034 SCT070 BKN085 72 69     91%   73 30.03   0    
Jun 23 07:00 S 7 8 Light Rain SCT038 BKN070 OVC120 72 69     91%   73 30.03   0    
Jun 23 06:53 S 7 6 Light Rain and Fog/Mist SCT039 BKN070 OVC120 71 69     93%   72 30.03 30.02 0   0
Jun 23 06:45 SSE 6 7 Light Rain SCT035 BKN043 OVC080 71 69     93%   72 30.03   0    
Jun 23 05:53 Calm 5 Fog/Mist FEW003 BKN036 71 68     90%   72 30.03 30.01      
Jun 23 05:46 Calm 6 Fog/Mist SCT003 BKN036 BKN045 70 68     93%     30.02        
Jun 23 04:53 Calm 8 Clear   70 68     93%     30.01 30 0    
Jun 23 04:48 Calm 7 Clear   70 68     94%     30.01   0    
Jun 23 03:53 E 5 5 Light Rain and Fog/Mist FEW002 BKN038 OVC046 70 68     93%     30.01 29.99 0 0  
Jun 23 03:46 ENE 3 6 Light Rain and Fog/Mist SCT001 OVC038 70 67     90%     30.01   0    
Jun 23 03:31 Calm 6 Fog/Mist FEW001 BKN038 BKN047 69 67     93%     30.01        
Jun 23 03:14 ENE 3 5 Fog/Mist FEW001 69 67     93%     30.01        
Jun 23 02:53 Calm 7 Mostly Clear FEW049 FEW060 69 66     90%     30.01 30      
Jun 23 01:53 Calm 7 Clear CLR 68 66     93%     30.02 30.01      
Jun 23 01:48 Calm 6 Fog/Mist CLR 68 66     94%     30.02        
Jun 23 01:41 NE 6 2 Fog/Mist CLR 68 66     93%     30.02        
Jun 23 01:37 NE 3 0.75 Fog/Mist CLR 69 67     93%     30.03        
Jun 23 01:32 Calm 0.5 Fog VV003 68 66     93%     30.03        
Jun 23 01:22 Calm 0.75 Fog/Mist CLR 68 66     93%     30.03        
Jun 23 01:18 Calm 1.5 Fog/Mist CLR 68 66     93%     30.03        
Jun 23 00:53 Calm 10 Clear CLR 70 68     93%     30.03 30.01      
Jun 22 23:53 Calm 10 Clear CLR 70 68     93%     30.03 30.01      
Jun 22 22:53 Calm 10 Clear CLR 71 68     90%   72 30.03 30.01      
Jun 22 21:53 Calm 10 Clear CLR 73 69     87%   74 30.03 30.01      
Jun 22 20:53 Calm 10 Clear CLR 73 69     87%   74 30 29.99      
Jun 22 19:53 SSE 10 10 Clear CLR 75 69     82%   76 29.98 29.96      
Jun 22 19:02 S 9 10 Partly Cloudy SCT015 76 70     82%   77 29.96        
Jun 22 18:53 SE 9 10 Mostly Cloudy BKN015 75 70     84%   76 29.96 29.94     0
Jun 22 18:32 ENE 6 10 Mostly Cloudy BKN013 75 69     82%   76 29.98        
Jun 22 17:53 E 10 10 Clear CLR 74 69     85%   75 29.93   0    
Jun 22 16:53 NNW 8 10 Mostly Cloudy SCT016 BKN100 74 68     82%   75 30.05 30.03 0    
Jun 22 16:28 NW 11 10 Light Rain BKN015 BKN050 OVC060 75 68     79%   76 30.09   0    
Jun 22 15:53 NW 11 10 Mostly Cloudy FEW042 BKN060 BKN095 78 67     69%   79 30.08 30.06      
Jun 22 14:53 WNW 8 10 Mostly Cloudy BKN100 83 70     65%   87 30.05 30.03      
Jun 22 13:53 7 10 Clear CLR 80 71     74%   84 30.02 30      
Jun 22 12:53 SW 13 10 Mostly Clear FEW015 78 69     74%   79 30.01 29.99 0   0
Jun 22 11:53 SW 9 10 Mostly Clear FEW120 76 69     79%   77 29.93   0    
Jun 22 10:53 S 7 10 Light Rain BKN110 71 67     87%   72 30.05 30.04 0    
Jun 22 10:21 S 7 7 Light Rain BKN110 70 67     90%     30.08   0    
Jun 22 10:06 S 5 7 Thunderstorms and Rain BKN110 70 67     90%     30.08   0    
Jun 22 09:53 SSE 5 5 Light Rain and Fog/Mist BKN110 70 67     90%     30.07 30.06 0 0  
Jun 22 09:43 ESE 5 5 Rain and Fog/Mist BKN110 70 67     90%     30.08   0    
Jun 22 09:34 S 5 6 Light Rain and Fog/Mist FEW013 BKN110 70 67     90%     30.09   0    
Jun 22 09:18 Calm 6 Light Rain and Fog/Mist FEW014 BKN110 70 67     90%     30.1   0    
Jun 22 09:03 WSW 3 10 Light Rain SCT110 70 67     90%     30.1   0    
Jun 22 08:53 WNW 3 10 Thunderstorms and Rain FEW035 BKN110 70 66     87%     30.08 30.06 0    
Jun 22 08:37 3 3 Thunderstorms and Rain and Fog/Mist SCT023 BKN041 OVC110 70 66     87%     30.06   0    
Jun 22 08:35 5 1.5 Thunderstorms and Rain and Fog/Mist FEW011 BKN041 OVC100 70 66     87%     30.05   0    
Jun 22 08:27 Calm 0.75 Thunderstorms and Heavy Rain and Fog/Mist FEW011 BKN030 BKN046 70 66     87%     30.06   0    
Jun 22 08:24 NW 3 1.5 Thunderstorms and Rain FEW015 BKN028 BKN036 71 66     84%   72 30.09   0    
Jun 22 08:22 NW 6 4 Thunderstorms and Rain FEW011 BKN030 BKN046 71 66     84%   72 30.09   0    
Jun 22 08:15 NW 8 9 Light Rain FEW013 SCT027 BKN100 71 66     84%   72 30.09   0    
Jun 22 07:53 SSW 6 10 Mostly Cloudy FEW080 BKN100 71 66     84%   72 30.01 29.99      
Jun 22 06:53 S 8 10 Clear CLR 69 66     90%     30.01 29.99      
Jun 22 05:53 SSE 5 10 Cloudy BKN050 OVC060 68 65     90%     30 29.98      
Jun 22 04:53 SE 5 10 Clear CLR 67 64     90%     29.97 29.95      
Jun 22 03:53 Calm 10 Clear CLR 67 64     90%     29.97 29.95      
Jun 22 02:53 Calm 10 Clear CLR 66 64     93%     29.96 29.94      
Jun 22 01:53 Calm 10 Clear CLR 67 64     90%     29.93 29.92      
Jun 22 00:53 E 6 10 Clear CLR 67 65     93%     29.93 29.92     1
Jun 21 23:53 E 5 10 Mostly Clear FEW011 68 65     90%     29.97 29.95      
Jun 21 22:53 6 10 Clear CLR 69 65     87%     29.94 29.92 0    
Jun 21 21:53 SE 6 10 Light Rain CLR 69 66     90%     30 29.98 0 1  
Jun 21 21:37 ESE 8 10 Thunderstorms and Rain FEW009 FEW100 69 66     90%     30   0    
Jun 21 21:15 E 7 10 Light Rain FEW009 SCT110 69 66     90%     30.03   0    
Jun 21 21:07 ENE 9 10 Light Rain SCT110 69 66     90%     30.03   0    
Jun 21 20:53 NE 6 10 Light Rain BKN120 69 66     90%     30.03 30.01 0    
Jun 21 20:10 NW 7 4 Thunderstorms and Rain and Fog/Mist BKN031 BKN070 OVC100 69 66     90%     30.02   0    
Jun 21 20:06 NNW 8 2.5 Thunderstorms and Rain and Fog/Mist BKN029 BKN070 OVC085 69 66     90%     30   0    
Jun 21 19:59 NNW 6 1.5 Thunderstorms and Heavy Rain and Fog/Mist FEW023 OVC031 68 66     93%     29.99   0    
Jun 21 19:53 W 9 1 Thunderstorms and Heavy Rain and Fog/Mist BKN021 OVC029 68 65     90%     30.02 30.01 1    
Jun 21 19:51 W 9 0.75 Thunderstorms and Heavy Rain and Fog/Mist BKN018 OVC028 68 64     88%     30.02   1    
Jun 21 19:47 WNW 11 0.5 Thunderstorms and Heavy Rain and Fog BKN011 BKN022 OVC043 68 64     88%     30.02   1    
Jun 21 19:45 NW 14 0.5 Thunderstorms and Heavy Rain and Fog BKN009 BKN020 OVC042 68 65     90%     30.03   1    
Jun 21 19:41   0.5 Thunderstorms and Heavy Rain and Fog SCT011 BKN026 OVC049 69 66     90%         1    
Jun 21 19:38   1 Thunderstorms and Heavy Rain and Fog/Mist SCT015 BKN026 OVC049 70 66     87%         0    
Jun 21 19:36   2 Thunderstorms and Heavy Rain FEW017 BKN026 OVC046 71 66     84%   72     0    
Jun 21 19:15 E 11 10 Thunderstorms and Rain SCT049 BKN060 OVC080 79 71     77%   82 29.92   0    
Jun 21 19:02 ENE 8 7 Rain FEW049 BKN060 OVC095 80 71     74%   84 29.92   0    
Jun 21 18:53 E 8 10 Cloudy SCT049 BKN060 OVC095 82 70     67%   86 29.93 29.91      
Jun 21 18:42 ENE 6 10 Thunderstorms SCT049 BKN055 OVC090 82 70     67%   86 29.93        
Jun 21 17:53 6 10 Mostly Cloudy BKN050 84 70     63%   88 29.92 29.9      
May 15 02:53 SSW 3 10 Clear CLR 74 67     79%   75 29.92 29.9      
May 14 10:53 N 5 10 Clear CLR 87 69     55%   91 30.05 30.03      
May 11 21:53 S 8 10 Clear CLR 77 61     58%   77 29.99 29.97      
Jun 11 22:53 Calm 10 Clear CLR 77 65     66%   78 30.08 30.06      
Jun 11 09:53 S 8 10 Mostly Clear FEW060 83 67     59%   86 30.15 30.14      
Jun 11 08:53 S 8 10 Clear CLR 79 65     62%   80 30.16 30.14      
Jun 10 21:53 SSE 5 10 Clear CLR 72 61     68%   72 30.05 30.03      
Jun 10 11:53 S 13 10 Mostly Clear FEW055 83 59     44%   83 30.07 30.05      
Jun 09 15:53 7 10 Clear CLR 80 54     41%   80 29.95 29.93      
Jun 09 02:53 Calm 10 Clear   54 53     97%     29.94 29.93      
Jun 07 07:53 NE 9 10 Clear CLR 65 56     73%     29.98 29.96      
Jun 06 04:51 Calm 0.5 Fog VV002 64 64     100%     29.83        
Jun 06 04:27 Calm 0.75 Fog/Mist OVC002 65 65     100%     29.82        
Jun 05 13:53 Calm 10 Cloudy BKN014 OVC021 75 70     84%   76 29.81 29.79